This is the latest recevied weather packets stored in our database for station/object KD5UIG. If no packets are shown the sender has not sent any weather packets the latest 10 day(s).
| Time | Temp. | Humidity | Pressure | Rain* | Wind** | Luminosity | Snow |
|---|---|---|---|---|---|---|---|
| 1777950056 | 23.33° C | 72% | 1005.4 hPa | 0 mm | - | 0 W/m² | - |
| 1777947357 | 23.33° C | 71% | 1005.6 hPa | 0 mm | - | 0 W/m² | - |
| 1777947054 | 23.33° C | 71% | 1005.5 hPa | 0 mm | - | 0 W/m² | - |
| 1777940454 | 26.11° C | 63% | 1005.4 hPa | 0 mm | - | 51 W/m² | - |
| 1777940156 | 26.11° C | 63% | 1005.4 hPa | 0 mm | - | 62 W/m² | - |
| 1777937754 | 27.22° C | 60% | 1005.5 hPa | 0 mm | - | 192 W/m² | - |
| 1777935957 | 27.22° C | 57% | 1005.5 hPa | 0 mm | - | 178 W/m² | - |
| 1777933555 | 28.89° C | 56% | 1005.9 hPa | 0 mm | - | 341 W/m² | - |
| 1777932964 | 28.89° C | 55% | 1006.1 hPa | 0 mm | - | 383 W/m² | - |
| 1777929355 | 28.89° C | 55% | 1007.1 hPa | 0 mm | - | 404 W/m² | - |
| 1777928465 | 28.89° C | 55% | 1007.2 hPa | 0 mm | - | 666 W/m² | - |
| 1777924554 | 28.89° C | 53% | 1008.5 hPa | 0 mm | - | 809 W/m² | - |
| 1777923655 | 28.89° C | 52% | 1008.6 hPa | 0 mm | - | 826 W/m² | - |
| 1777923053 | 28.89° C | 53% | 1008.7 hPa | 0 mm | - | 786 W/m² | - |
| 1777920956 | 27.78° C | 56% | 1009.3 hPa | 0 mm | - | 942 W/m² | - |
| 1777920660 | 27.78° C | 53% | 1009.4 hPa | 0 mm | - | 691 W/m² | - |
| 1777920365 | 27.78° C | 56% | 1009.4 hPa | 0 mm | - | 872 W/m² | - |
| 1777919754 | 27.22° C | 55% | 1009.6 hPa | 0 mm | - | 937 W/m² | - |
| 1777919460 | 27.22° C | 56% | 1009.7 hPa | 0 mm | - | 856 W/m² | - |
| 1777917659 | 26.67° C | 55% | 1010.3 hPa | 0 mm | - | 947 W/m² | - |
| 1777916155 | 26.11° C | 56% | 1010.6 hPa | 0 mm | - | 858 W/m² | - |
| 1777913754 | 25.56° C | 57% | 1011.3 hPa | 0 mm | - | 731 W/m² | - |
| 1777911654 | 24.44° C | 59% | 1011.9 hPa | 0 mm | - | 684 W/m² | - |
| 1777910755 | 24.44° C | 59% | 1011.9 hPa | 0 mm | - | 642 W/m² | - |
| 1777910461 | 23.89° C | 58% | 1011.7 hPa | 0 mm | - | 631 W/m² | - |
* Rain latest hour (hover to see other rain measurements)
** Current wind speed in m/s (hover to see current wind gust speed)